Volver al catálogo

THORAD DELTA 1 DEB

ActivoSSO
NORAD 9697·DEBRIS·🇺🇸 United States

Lanzado Nov 15, 1974 desde Vandenberg Space Force Base

Loading…

Próximos Pases (próximas 24 horas)

TLE

ActualizadoSource: Space-Track

Época: Sep 13, 2026, 19:01 UTC

1 09697U 74089DW  26256.79299030  .00000112  00000-0  95283-3 0  9993
2 09697 101.8238   9.1444 0145384 280.7281 234.8339 12.53807486370388

Sigue THORAD DELTA 1 DEB en tiempo real con AllMySat

Download on the App Store